Location: Alphen
(52.1351°N, 4.6549°E)
Time: 02:12:52
(UTC+00:00)

USA 307 - Pass Details

Date: 27 January 2021
Orbit: 565 x 580 km, 54.0° (Epoch: 25 February)

Event Time Altitude Azimuth Distance (km) Brightness Sun altitude
Exits shadow 04:44:21 31° 164° (SSE) 998 4.2 -25.1°
Maximum altitude 04:45:03 33° 143° (SE) 954 4.3 -25.0°
Drops below altitude 10° 04:48:52 10° 79° (ENE) 1,865 6.6 -24.4°
Sets 04:51:16 0° 70° (ENE) 2,766 7.6 -24.0°
